Terminal Aerodrome Forecast
Issued by NWS

Home | Current Version | Previous Version | Text Only | Print | Product List | Glossary On
Versions: 1 2 3 4 5 6 7 8 9 10 11 12 13 14 15 16 17 18 19 20 21 22 23 24 25 26 27 28 29 30 31 32 33 34 35 36 37 38 39 40 41
000
FTUS43 KDTX 211700
TAFPTK
TAF
KPTK 211720Z 2118/2218 14008KT P6SM BKN025 OVC040
      TEMPO 2118/2122 5SM -TSRA OVC025CB
     FM220000 VRB03KT 2SM SHRA BR BKN015 OVC035
     FM221300 09005KT 4SM -SHRA BR OVC030=

USA.gov is the U.S. government's official web portal to all federal, state and local government web resources and services.